Other Public Products
Issued by NWS Grand Forks, ND

Home | Current Version | Previous Version | Text Only | Print | Product List | Glossary Off
Versions: 1 2 3 4 5 6 7 8 9 10 11 12 13 14 15 16 17 18 19 20 21 22 23 24 25 26 27 28 29 30 31 32 33 34 35 36 37 38 39 40 41 42 43 44 45 46 47 48 49 50

000
FPUS83 KFGF 202310
OPUFGF
PRAIRIE TO PINES WEATHER ROUNDUP
NATIONAL WEATHER SERVICE EASTERN NORTH DAKOTA/GRAND FORKS ND
600 PM CDT MON OCT 20 2014

 **SATELLITE DATA USED TO AUGMENT SKY COVER AT AUTOMATED STATIONS**
 *****  WEATHER ACROSS EASTERN NORTH DAKOTA  *****

CITY           SKY/WX    TMP DP  RH WIND       PRES   REMARKS
GRAND FORKS    CLEAR     57  42  57 E5        30.03R
GRAND FORKS AF CLEAR     57  44  62 SE6       30.03S
GRAND CITY NWS   N/A     54 N/A N/A E5          N/A
BUXTON         NOT AVBL
DEVILS LAKE    CLEAR     63  43  48 SE8       29.97F
FARGO          CLEAR     61  43  51 E5        30.02S
WAHPETON ARPT  CLEAR     63  36  36 NE7       30.03S
$$

 *****  WEATHER ACROSS CENTRAL AND WESTERN NORTH DAKOTA  *****

CITY           SKY/WX    TMP DP  RH WIND       PRES   REMARKS
JAMESTOWN      CLEAR     65  38  36 SE7       29.99S
BISMARCK       CLEAR     69  35  28 SE12      29.95F
MINOT          CLEAR     68  36  30 SE9       29.90F
MINOT AFB      CLEAR     67  40  37 S12       29.89F
GARRISON         N/A     68  41  37 S9        29.91F
WILLISTON      CLEAR     76  40  27 S12       29.82F
DICKINSON      CLEAR     69  42  37 S12       29.88F
HETTINGER      CLEAR     71  39  31 SE12G21   29.92F
$$

 *****  OTHER OBSERVATIONS NORTHEAST NORTH DAKOTA  *****

CITY           SKY/WX    TMP DP  RH WIND       PRES   REMARKS
WALHALLA         N/A     55  45  67 SE9       30.02S
LANGDON        FAIR      59  41  51 SE10      30.00S
CAVALIER       FAIR      57  43  58 SE5       30.03S
GRAFTON        FAIR      55  41  58 SE6       30.03S
CANDO          FAIR      61  43  51 SE8       29.98S
FORT TOTTEN    NOT AVBL
ROLLA          FAIR      63  39  42 SE9       29.98S
RUGBY          FAIR      66  36  32 S6        29.95S
 ***** THE ABOVE OBSERVATIONS ARE NON NWS ARE NOT QUALITY
        CONTROLLED AND MAY MIS-REPORT RAIN FOR SNOW...
$$

 *****  OTHER OBSERVATIONS SOUTHEAST NORTH DAKOTA *****

CITY           SKY/WX    TMP DP  RH WIND       PRES   REMARKS
COOPERSTOWN    NOT AVBL
VALLEY CITY    FAIR      63  43  48 E6        30.01S
OAKES            N/A     66  39  37 E5        30.01F
GWINNER        CLEAR     66  43  42 E6        30.03S
BUFFALO        NOT AVBL
WYNDMERE         N/A     64  39  39 NE2         N/A
 ***** THE ABOVE OBSERVATIONS ARE NON NWS ARE NOT QUALITY
       CONTROLLED AND MAY MIS-REPORT RAIN FOR SNOW...
$$

  *****  WEATHER ACROSS NORTHERN MINNESOTA  *****

CITY           SKY/WX    TMP DP  RH WIND       PRES   REMARKS
FLAG ISLAND    CLEAR     46  37  71 CALM      30.06R
WARROAD        CLEAR     46  41  81 E6        30.08R
ROSEAU         CLEAR     52  39  62 CALM      30.06S
HALLOCK        CLEAR     55  39  54 E3        30.04S
THF RVR FALLS  CLEAR     54  39  58 CALM      30.05S
HALSTAD          N/A     60  36  40 NE3         N/A
FOSSTON        CLEAR     55  37  50 CALM      30.05S
BAUDETTE       CLEAR     45  36  70 NW6       30.07R
WASKISH        CLEAR     46  39  76 CALM      30.06S
CROOKSTON      CLEAR     55  41  58 E3        30.05R
$$
  *****  WEATHER ACROSS CENTRAL AND WEST MINNESOTA  *****

CITY           SKY/WX    TMP DP  RH WIND       PRES   REMARKS
BEMIDJI        CLEAR     48  38  67 N5        30.05R
PARK RAPIDS    CLEAR     58  34  40 N6        30.02S
WADENA         CLEAR     55  39  54 NW5       30.02S
DETROIT LAKES  CLEAR     55  39  54 N5        30.05R
MOORHEAD       CLEAR     61  43  51 NE3       30.03F
FERGUS FALLS   CLEAR     61  36  39 N5        30.04S
ELBOW LAKE     FAIR      59  40  50 NW6       30.03S
MORRIS MN      CLEAR     63  41  45 N8        30.03R
STAPLES        CLEAR     57  34  41 N3        30.02S
WHEATON        CLEAR     61  39  44 N6        30.05R
$$
  *****  WEATHER ELSEWHERE ACROSS MINNESOTA  *****

CITY           SKY/WX    TMP DP  RH WIND       PRES   REMARKS
DULUTH         CLOUDY    48  36  63 N8        30.04R
INTRNTL FALLS  CLOUDY    46  35  65 NE5       30.07R
ELY            CLOUDY    45  36  70 CALM      30.05R
CLOQUET        CLOUDY    48  37  66 N5        30.05R
BRAINERD       CLEAR     52  39  61 NE10      30.04R
HIBBING        CLOUDY    48  35  60 NE3       30.05R
ALEXANDRIA     CLEAR     59  38  45 N7        30.04R
SAINT CLOUD    CLEAR     62  40  44 N6        30.02R
MINNEAPOLIS    CLEAR     60  40  47 NW10      30.00R
$$

  *****  WEATHER ACROSS SOUTH DAKOTA  *****

CITY           SKY/WX    TMP DP  RH WIND       PRES   REMARKS
SIOUX FALLS    CLEAR     67  37  33 W5        30.03F
BROOKINGS      NOT AVBL
WATERTOWN      CLEAR     64  36  35 CALM      30.03S
HURON          CLEAR     69  32  25 SE6       30.01F
SISSETON         N/A     65  40  39 NE6       30.02R
ABERDEEN       CLEAR     66  37  34 S5        30.01F
MITCHELL       CLEAR     69  36  29 E6        30.03S
PIERRE         CLEAR     73  39  29 SE12      29.95F
MOBRIDGE       CLEAR     71  37  28 SE9       29.94F
RAPID CITY     CLEAR     75  46  35 S12       29.91F
$$

  *****  SOME WEATHER IN NEARBY STATES *****

CITY           SKY/WX    TMP DP  RH WIND       PRES   REMARKS
GLASGOW MT     CLEAR     73  43  33 SE7       29.77S
GREAT FALLS MT SUNNY     77  30  17 SW14      29.76F
CHEYENNE WY    SUNNY     69  34  27 S10       30.10F
SCOTTSBLUFF NE SUNNY     79  38  22 S14       29.99S
OMAHA NE       CLEAR     70  41  34 NW5       30.04S
DES MOINES IA  PTCLDY    68  38  33 NW8       30.01R
DAVENPORT IA   CLEAR     62  41  46 NW8       29.95R
CHICAGO IL     MOCLDY    56  44  64 NE7       29.93R
EAU CLAIRE WI  PTCLDY    53  38  56 N5        30.01R
LA CROSSE WI   CLEAR     60  41  49 N7        29.97R
$$

  *****  SOME NATIONAL WEATHER *****

CITY           SKY/WX    TMP DP  RH WIND       PRES   REMARKS
LA GUARDIA NY  MOCLDY    59  37  44 SW8       29.97S
RALEIGH NC     PTCLDY    63  48  58 S5        30.00R
ATLANTA GA     PTCLDY    67  49  52 CALM      30.00S
NEW ORLEANS LA PTCLDY    73  53  49 N8        29.99S
OKLAHOMA CITY  PTCLDY    80  59  48 CALM      30.00F
ALBUQUERQUE NM PTSUNNY   60  48  64 NW5       30.15F THUNDER
SALT LAKE CITY MOSUNNY   77  34  21 S14       29.92F
LOS ANGELES CA MOSUNNY   70  61  73 W14       29.88F
BOISE ID       MOSUNNY   75  37  25 NW5       29.74F
SEATTLE WA     LGT RAIN  60  54  80 SW8       29.78R
$$

*** WEATHER ACROSS MANITOBA...SASKATCHEWAN AND ONTARIO ***
                ***ONTARIO***

CITY           SKY/WX    TMP DP  RH WIND       PRES   REMARKS
GERALDTON      CLOUDY    34  34 100 N9        30.07R
THUNDER BAY    PTCLDY    43  36  75 N7        30.06R
SIOUX LOOKOUT  CLOUDY    39  32  75 NE3       30.11R
TORONTO        LGT RAIN  52  50  93 CALM      29.79R
BIG TROUT LK   CLOUDY    34  30  86 CALM      30.15R
PICKLE LAKE    DRIZZLE   36  34  93 NE5       30.11S
DRYDEN         CLOUDY    41  34  75 N5        30.09R
KENORA         PTCLDY    45  36  70 E5        30.08R
$$
                *** MANITOBA***

CITY           SKY/WX    TMP DP  RH WIND       PRES   REMARKS
BRANDON        CLEAR     55  45  67 E15       29.95S
DAUPHIN        CLEAR     48  43  81 SE15G21   29.91F
ISLAND LAKE    CLOUDY    39  34  81 S7        30.11R
PILOT MOUND      N/A     63  37  39 S8          N/A
THE PAS        PTCLDY    46  41  81 SE20G28   29.82F
THOMPSON       CLOUDY    36  36 100 SE15      29.99F
WINNIPEG       NOT AVBL
LYNN LAKE      CLOUDY    37  36  93 SE16G25   29.80F
CHURCHILL      CLOUDY    36  34  93 S7        30.06F
GILLAM         CLOUDY    37  32  81 S5        30.08F
$$
                ***SASKATCHEWAN***

CITY           SKY/WX    TMP DP  RH WIND       PRES   REMARKS
ESTEVAN        PTCLDY    70  43  37 S12G18    29.84S
KINDERSLEY     CLEAR     73  36  25 SW8       29.65S
LLOYDMINSTER   PTCLDY    68  36  30 S8        29.58S
PRINCE ALBERT  PTCLDY    64  43  45 S9        29.63F
REGINA         CLEAR     70  45  40 S12       29.76F
YORKTON        CLEAR     64  43  45 SE14      29.81S


USA.gov is the U.S. government's official web portal to all federal, state and local government web resources and services.